Regional Weather Roundup
Issued by NWS

Home | Current Version | Previous Version | Graphics & Text | Print | Product List | Glossary On
Versions: 1 2 3 4 5 6 7 8 9 10 11 12 13 14 15 16 17 18 19 20 21 22 23 24 25 26 27 28 29 30 31 32 33 34 35 36 37 38 39 40 41 42 43 44 45 46 47 48 49 50
000
ASUS45 KPSR 200510
RWRAZ

ARIZONA REGIONAL HOURLY WEATHER ROUNDUP
NATIONAL WEATHER SERVICE PHOENIX AZ
1000 PM MST TUE AUG 19 2014

NOTE: FAIR INDICATES FEW OR NO CLOUDS BELOW 12,000 FEET WITH NO
SIGNIFICANT WEATHER AND/OR OBSTRUCTIONS TO VISIBILITY.

AZZ001>003-036-200600-
NORTHWEST ARIZONA

CITY           SKY/WX    TMP DP  RH WIND       PRES   REMARKS
BULLHEAD CITY  CLEAR     77  66  69 SW5       29.74R
KINGMAN        CLEAR     68  55  63 SE12      29.91R
$$

AZZ004>008-015-016-018-200600-
NORTH CENTRAL ARIZONA

CITY           SKY/WX    TMP DP  RH WIND       PRES   REMARKS
GRAND CANYON     N/A    N/A N/A N/A MISG        N/A
WILLIAMS       PTCLDY    52  50  93 SE8       30.21S
PRESCOTT       PTCLDY    58  53  84 S8        30.07R
FLAGSTAFF      CLOUDY    53  50  89 CALM      30.18S
PAYSON         CLOUDY    63  61  94 CALM      30.11F
PAGE           PTCLDY    70  60  70 CALM      29.96S
$$

AZZ009>014-017-200600-
NORTHEAST ARIZONA

CITY           SKY/WX    TMP DP  RH WIND       PRES   REMARKS
WINSLOW        PTCLDY    63  56  78 SW6       30.04F
SAINT JOHNS    MOCLDY    65  51  60 SW8       30.09S
WINDOW ROCK    CLOUDY    63  54  72 SW6       30.14S
SHOW LOW       PTCLDY    54  50  87 S10       30.17F
$$

AZZ023-200600-
GREATER PHOENIX AREA

CITY           SKY/WX    TMP DP  RH WIND       PRES   REMARKS
PHOENIX        MOCLDY    76  65  68 W12       29.86R
BUCKEYE          N/A     73  66  78 E13G20    29.82F
LUKE AFB       NOT AVBL
DEER VALLEY    CLOUDY    75  65  70 E9        29.86F
SCOTTSDALE     CLOUDY    76  66  71 CALM      29.88F
MESA-GATEWAY   MOCLDY    81  61  50 NE9       29.89R
$$

AZZ027-028-200600-
SOUTHWEST MARICOPA COUNTY AND PINAL COUNTY

CITY           SKY/WX    TMP DP  RH WIND       PRES   REMARKS
CASA GRANDE    PTCLDY    79  64  61 CALM      29.88S
GILA BEND        N/A     86  63  45 NE12      29.82R
$$

AZZ503-504-507>509-200600-
SOUTHEAST ARIZONA

CITY           SKY/WX    TMP DP  RH WIND       PRES   REMARKS
TUCSON         MOCLDY    73  66  78 S9        29.98R
DAVIS-MONTHAN  CLEAR     71  64  78 E14       29.95F
NOGALES        PTCLDY    67  61  81 S6        30.06R
SIERRA VISTA   LGT RAIN  66  63  88 SW6       30.11F
DOUGLAS        CLOUDY    65  63  93 S7        30.07S
SAFFORD        PTCLDY    66  63  90 SE3       29.98S
$$

AZZ020-021-025-026-031-200600-
SOUTHWEST ARIZONA

CITY           SKY/WX    TMP DP  RH WIND       PRES   REMARKS
YUMA           PTCLDY    90  66  45 S7        29.74R
$$

CAZ031-033-041-043-047-048-061-200600-
SOUTHERN CALIFORNIA

CITY           SKY/WX    TMP DP  RH WIND       PRES   REMARKS
DOWNTOWN L.A.  CLOUDY    70  61  73 CALM      29.88R
L.A. AIRPORT   CLOUDY    69  60  73 W8        29.89R
SAN DIEGO      PTCLDY    69  59  70 W5        29.90S
BURBANK        CLOUDY    68  60  75 CALM      29.89R
ONTARIO        CLEAR     67  60  78 W7        29.89R
RIVERSIDE      CLEAR     68  60  75 W6        29.89R
PALM SPRINGS   CLEAR     86  49  27 NW15      29.75R
EL CENTRO NAS  PTCLDY    88  37  16 W22       29.70R
IMPERIAL       CLEAR     87  39  18 W17       29.69R
BLYTHE         PTCLDY    93  50  23 SW16      29.70R
NEEDLES        CLEAR     83  61  47 CALM      29.74R
$$

NVZ020-UTZ003-200600-
SOUTHERN NEVADA-UTAH

CITY           SKY/WX    TMP DP  RH WIND       PRES   REMARKS
LAS VEGAS      MOCLDY    82  55  39 SE5       29.77R
SALT LAKE CITY MOCLDY    69  57  65 SE7       29.89R
$$

NMZ009-TXZ055-200600-
NEW MEXICO-WEST TEXAS

CITY           SKY/WX    TMP DP  RH WIND       PRES   REMARKS
ALBUQUERQUE    MOCLDY    69  52  54 S10       30.04S
EL PASO        MOCLDY    76  58  53 SW16      29.96S
$$


........................KEY........................
SKY/WX - SKY CONDITION/WEATHER
TMP    - TEMPERATURE IN FAHRENHEIT
DP     - DEW POINT IN FAHRENHEIT
RH     - RELATIVE HUMIDITY IN PERCENT
WIND   - DIRECTION AND SPEED IN MILES PER HOUR (MPH)
VRB    - VARIABLE WIND DIRECTION
PRES   - MEAN SEA LEVEL PRESSURE IN INCHES OF MERCURY
         F - FALLING PRESSURE   R - RISING PRESSURE
         S - STEADY PRESSURE
VSB    - VISIBILITY IN MILES
HX     - HEAT INDEX IN FAHRENHEIT
WCI    - WIND CHILL INDEX IN FAHRENHEIT
TC     - TEMPERATURE IN CELSIUS WHICH IS ALSO KNOWN AS
         TEMPERATURE IN CENTIGRADE
AFB    - AIR FORCE BASE
         LUKE AFB IS LUKE AIR FORCE BASE
         DAVIS-MONTHAN IS DAVIS-MONTHAN AIR FORCE BASE
NAS    - NAVAL AIR STATION
         EL CENTRO NAS IS EL CENTRO NAVAL AIR STATION
N/A    - NOT AVAILABLE


USA.gov is the U.S. government's official web portal to all federal, state and local government web resources and services.